Hourly Data Report for September 17, 2020

OTTAWA INTL A
ONTARIO
Current Station Operator: NAVCAN

45°19'00.000" N
75°40'00.000" W
114.90 m
6106001
71628
YOW

Download Data

Hourly Data (September 2020)
Hourly Data Report for September 17, 2020
TIME Temp Definition
°C
Dew Point Definition
°C
Rel Hum Definition
%
Wind Dir Definition
10's deg

Wind Spd Definition
km/h
Visibility Definition
km
Stn Press Definition
kPa
Hmdx Definition


Wind Chill Definition


Weather Definition


00:00 14.6 11.8 83 32 10 24.1 100.06     LegendNANA
01:00 14.4 11.9 85 29 8 24.1 100.10     Cloudy
02:00 14.3 11.3 82 32 8 24.1 100.13     LegendNANA
03:00 14.1 11.1 82 33 11 24.1 100.15     LegendNANA
04:00 13.2 10.3 83 32 18 24.1 100.22     Mostly Cloudy
05:00 12.7 10.3 86 35 12 24.1 100.31     LegendNANA
06:00 11.2 8.4 82 35 14 24.1 100.40     LegendNANA
07:00 11.3 8.3 82 33 21 24.1 100.50     Mainly Clear
08:00 11.0 7.7 80 32 19 24.1 100.55     LegendNANA
09:00 12.3 7.1 70 35 17 24.1 100.61     LegendNANA
10:00 12.8 6.1 64 36 18 24.1 100.66     Mainly Clear
11:00 14.0 7.0 62 33 21 24.1 100.66     LegendNANA
12:00 13.3 5.1 57 34 20 24.1 100.67     LegendNANA
13:00 12.9 3.2 51 32 16 24.1 100.64     Clear
14:00 13.8 2.6 46 34 16 24.1 100.60     LegendNANA
15:00 14.0 1.6 43 34 16 24.1 100.57     LegendNANA
16:00 13.8 0.1 39 30 11 24.1 100.54     Clear
17:00 13.2 1.5 45 33 13 24.1 100.53     LegendNANA
18:00 11.6 1.5 50 34 12 24.1 100.54     LegendNANA
19:00 9.1 1.4 58 1 10 24.1 100.56     Mainly Clear
20:00 8.9 0.7 56 1 12 24.1 100.61     LegendNANA
21:00 6.5 2.0 73 4 8 24.1 100.62     LegendNANA
22:00 4.6 1.6 81 2 12 24.1 100.66     Clear
23:00 4.8 1.5 79 2 9 24.1 100.68     LegendNANA

Notes on Data Quality.

Legend

  • E = Estimated
  • M = Missing
  • NA = Not Available*
  • [empty] = Indicates an unobserved value
Date modified: